When you browse on this site, cookies collect data to enhance your experience and personalize the content and advertising you see.
Visit our Privacy Policy to learn more. By continuing to use the site, you agree to this use of cookies and data.
  • In Spain
  • List of Countries
  • For 7 days
  • Water Temperature
  • Satellite Maps
  • Weather Map
  • Weather Widgets
  • user-avatar
    Login

    Hourly Weather Cacalosuchil

    Today, 17 December, Monday

    Time Temperature Precipitation Wind Pressure Humidity
    00:00 +15°C° 0 mm 1 mps 629 mmHg 62%
    01:00 +14°C° 0 mm 1 mps 629 mmHg 63%
    02:00 +14°C° 0 mm 1 mps 629 mmHg 65%
    03:00 +14°C° 0 mm 1 mps 629 mmHg 65%
    04:00 +13°C° 0 mm 1 mps 629 mmHg 66%
    05:00 +13°C° 0 mm 1 mps 628 mmHg 67%
    06:00 +15°C° 0 mm 1 mps 629 mmHg 62%
    07:00 +16°C° 0 mm 1 mps 630 mmHg 57%
    08:00 +17°C° 0 mm 0 mps 631 mmHg 52%
    09:00 +21°C° 0 mm 1 mps 631 mmHg 47%
    10:00 +23°C° 0 mm 1 mps 632 mmHg 42%
    11:00 +24°C° 0 mm 1 mps 632 mmHg 37%
    12:00 +25°C° 0 mm 2 mps 631 mmHg 36%
    13:00 +25°C° 0 mm 2 mps 630 mmHg 36%
    14:00 +25°C° 0 mm 2 mps 630 mmHg 36%
    15:00 +23°C° 0 mm 2 mps 629 mmHg 41%
    16:00 +21°C° 0 mm 2 mps 629 mmHg 47%
    17:00 +20°C° 0 mm 1 mps 628 mmHg 52%
    18:00 +19°C° 0 mm 1 mps 628 mmHg 55%
    19:00 +18°C° 0 mm 1 mps 629 mmHg 57%
    20:00 +18°C° 0 mm 1 mps 629 mmHg 60%
    21:00 +16°C° 0 mm 1 mps 629 mmHg 61%
    22:00 +16°C° 0 mm 1 mps 629 mmHg 62%
    23:00 +16°C° 0 mm 1 mps 628 mmHg 63%

    Tomorrow, 18 December, Tuesday

    Time Temperature Precipitation Wind Pressure Humidity
    00:00 +15°C° 0 mm 1 mps 628 mmHg 64%
    01:00 +15°C° 0 mm 1 mps 628 mmHg 65%
    02:00 +14°C° 0 mm 1 mps 627 mmHg 66%
    03:00 +14°C° 0 mm 1 mps 627 mmHg 67%
    04:00 +14°C° 0 mm 1 mps 627 mmHg 69%
    05:00 +14°C° 0 mm 1 mps 627 mmHg 70%
    06:00 +14°C° 0 mm 0 mps 628 mmHg 65%
    07:00 +16°C° 0 mm 0 mps 628 mmHg 60%
    08:00 +18°C° 0 mm 0 mps 629 mmHg 55%
    09:00 +21°C° 0 mm 1 mps 629 mmHg 51%
    10:00 +23°C° 0 mm 1 mps 630 mmHg 46%
    11:00 +24°C° 0 mm 2 mps 630 mmHg 42%
    12:00 +25°C° 0 mm 2 mps 629 mmHg 41%
    13:00 +25°C° 0 mm 3 mps 628 mmHg 39%
    14:00 +25°C° 0 mm 3 mps 627 mmHg 38%
    15:00 +24°C° 0 mm 3 mps 627 mmHg 43%
    16:00 +21°C° 0 mm 2 mps 627 mmHg 48%
    17:00 +20°C° 0 mm 2 mps 627 mmHg 52%
    18:00 +20°C° 0 mm 1 mps 627 mmHg 55%
    19:00 +19°C° 0 mm 1 mps 627 mmHg 58%
    20:00 +18°C° 0 mm 1 mps 627 mmHg 60%
    21:00 +18°C° 0 mm 1 mps 627 mmHg 62%
    22:00 +16°C° 0 mm 1 mps 627 mmHg 64%
    23:00 +16°C° 0 mm 1 mps 626 mmHg 66%

    Day after tomorrow, 19 December, Wednesday

    Time Temperature Precipitation Wind Pressure Humidity
    00:00 +15°C° 0 mm 1 mps 626 mmHg 67%
    01:00 +15°C° 0 mm 1 mps 626 mmHg 69%
    02:00 +15°C° 0 mm 1 mps 625 mmHg 70%
    03:00 +14°C° 0 mm 1 mps 625 mmHg 70%
    04:00 +14°C° 0 mm 1 mps 625 mmHg 70%
    05:00 +14°C° 0 mm 1 mps 625 mmHg 70%
    06:00 +15°C° 0 mm 1 mps 626 mmHg 65%
    07:00 +18°C° 0 mm 1 mps 627 mmHg 61%
    08:00 +19°C° 0 mm 1 mps 628 mmHg 56%
    09:00 +21°C° 0 mm 1 mps 628 mmHg 51%
    10:00 +21°C° 0 mm 2 mps 628 mmHg 47%
    11:00 +24°C° 0 mm 3 mps 628 mmHg 42%
    12:00 +24°C° 0 mm 3 mps 627 mmHg 41%
    13:00 +23°C° 0 mm 4 mps 627 mmHg 40%
    14:00 +25°C° 0 mm 4 mps 626 mmHg 38%
    15:00 +22°C° 0 mm 4 mps 626 mmHg 43%
    16:00 +21°C° 0 mm 3 mps 625 mmHg 47%
    17:00 +19°C° 0 mm 2 mps 625 mmHg 52%
    18:00 +18°C° 0 mm 2 mps 626 mmHg 54%
    19:00 +18°C° 0 mm 1 mps 626 mmHg 56%
    20:00 +16°C° 0 mm 1 mps 626 mmHg 58%
    21:00 +16°C° 0 mm 1 mps 626 mmHg 58%
    22:00 +15°C° 0 mm 1 mps 626 mmHg 58%
    23:00 +15°C° 0 mm 1 mps 626 mmHg 58%

    20 December, Thursday

    Time Temperature Precipitation Wind Pressure Humidity
    00:00 +14°C° 0 mm 1 mps 626 mmHg 58%
    01:00 +14°C° 0 mm 1 mps 625 mmHg 59%
    02:00 +13°C° 0 mm 1 mps 625 mmHg 60%
    03:00 +13°C° 0 mm 1 mps 625 mmHg 60%
    04:00 +13°C° 0 mm 1 mps 625 mmHg 61%
    05:00 +13°C° 0 mm 1 mps 625 mmHg 61%
    06:00 +14°C° 0 mm 1 mps 626 mmHg 55%
    07:00 +16°C° 0 mm 1 mps 628 mmHg 50%
    08:00 +19°C° 0 mm 1 mps 629 mmHg 44%
    09:00 +21°C° 0 mm 1 mps 629 mmHg 38%
    10:00 +23°C° 0 mm 1 mps 629 mmHg 31%
    11:00 +25°C° 0 mm 1 mps 630 mmHg 25%
    12:00 +26°C° 0 mm 1 mps 629 mmHg 23%
    13:00 +26°C° 0 mm 1 mps 629 mmHg 22%
    14:00 +27°C° 0 mm 1 mps 628 mmHg 20%
    15:00 +25°C° 0 mm 1 mps 628 mmHg 24%
    16:00 +23°C° 0 mm 1 mps 628 mmHg 29%
    17:00 +21°C° 0 mm 1 mps 628 mmHg 33%
    18:00 +19°C° 0 mm 2 mps 628 mmHg 38%
    19:00 +18°C° 0 mm 2 mps 628 mmHg 43%
    20:00 +16°C° 0 mm 3 mps 629 mmHg 48%
    21:00 +16°C° 0 mm 3 mps 628 mmHg 53%
    22:00 +14°C° 0 mm 3 mps 628 mmHg 58%
    23:00 +14°C° 0 mm 3 mps 628 mmHg 62%

    21 December, Friday

    Time Temperature Precipitation Wind Pressure Humidity
    00:00 +14°C° 0 mm 2 mps 628 mmHg 64%
    01:00 +14°C° 0 mm 2 mps 627 mmHg 65%
    02:00 +13°C° 0 mm 2 mps 627 mmHg 66%
    03:00 +13°C° 0 mm 2 mps 627 mmHg 67%
    04:00 +13°C° 0 mm 2 mps 627 mmHg 69%
    05:00 +12°C° 0 mm 2 mps 627 mmHg 70%
    06:00 +14°C° 0 mm 2 mps 628 mmHg 64%
    07:00 +15°C° 0 mm 2 mps 629 mmHg 59%
    08:00 +16°C° 0 mm 2 mps 630 mmHg 54%
    09:00 +18°C° 0 mm 2 mps 630 mmHg 47%
    10:00 +20°C° 0 mm 2 mps 630 mmHg 40%
    11:00 +23°C° 0 mm 2 mps 631 mmHg 33%
    12:00 +24°C° 0 mm 2 mps 630 mmHg 31%
    13:00 +24°C° 0 mm 2 mps 629 mmHg 30%
    14:00 +25°C° 0 mm 2 mps 629 mmHg 28%
    15:00 +23°C° 0 mm 2 mps 628 mmHg 34%
    16:00 +20°C° 0 mm 2 mps 628 mmHg 40%
    17:00 +18°C° 0 mm 2 mps 628 mmHg 45%
    18:00 +17°C° 0 mm 2 mps 628 mmHg 49%
    19:00 +16°C° 0 mm 2 mps 628 mmHg 53%
    20:00 +15°C° 0 mm 2 mps 628 mmHg 57%
    21:00 +14°C° 0 mm 2 mps 628 mmHg 58%
    22:00 +14°C° 0 mm 1 mps 628 mmHg 59%
    23:00 +14°C° 0 mm 1 mps 628 mmHg 60%

    22 December, Saturday

    Time Temperature Precipitation Wind Pressure Humidity
    00:00 +13°C° 0 mm 1 mps 627 mmHg 61%
    01:00 +13°C° 0 mm 1 mps 627 mmHg 62%
    02:00 +12°C° 0 mm 1 mps 627 mmHg 62%
    03:00 +12°C° 0 mm 1 mps 627 mmHg 63%
    04:00 +12°C° 0 mm 1 mps 627 mmHg 63%
    05:00 +12°C° 0 mm 1 mps 627 mmHg 63%
    06:00 +13°C° 0 mm 1 mps 628 mmHg 57%
    07:00 +15°C° 0 mm 1 mps 629 mmHg 51%
    08:00 +18°C° 0 mm 1 mps 629 mmHg 45%
    09:00 +20°C° 0 mm 1 mps 630 mmHg 39%
    10:00 +22°C° 0 mm 1 mps 630 mmHg 33%
    11:00 +24°C° 0 mm 1 mps 630 mmHg 28%
    12:00 +25°C° 0 mm 1 mps 629 mmHg 27%
    13:00 +25°C° 0 mm 2 mps 629 mmHg 26%
    14:00 +26°C° 0 mm 2 mps 628 mmHg 25%
    15:00 +24°C° 0 mm 2 mps 628 mmHg 31%
    16:00 +21°C° 0 mm 2 mps 628 mmHg 36%
    17:00 +20°C° 0 mm 1 mps 627 mmHg 42%
    18:00 +19°C° 0 mm 1 mps 628 mmHg 45%
    19:00 +18°C° 0 mm 1 mps 628 mmHg 48%
    20:00 +16°C° 0 mm 1 mps 628 mmHg 51%
    21:00 +16°C° 0 mm 1 mps 628 mmHg 52%
    22:00 +15°C° 0 mm 1 mps 628 mmHg 52%
    23:00 +15°C° 0 mm 1 mps 628 mmHg 53%
    Show more